Regional Weather Roundup
Issued by NWS

Home | Current Version | Previous Version | Text Only | Print | Product List | Glossary On
Versions: 1 2 3 4 5 6 7 8 9 10 11 12 13 14 15 16 17 18 19 20 21 22 23 24 25 26 27 28 29 30 31 32 33 34 35 36 37 38 39 40 41 42 43 44 45 46 47 48 49 50
000
ASUS43 KLMK 080210
RWRKY
KENTUCKY REGIONAL WEATHER ROUNDUP
NATIONAL WEATHER SERVICE LOUISVILLE KY
900 PM EST WED DEC 07 2016

NOTE "FAIR" INDICATES FEW OR NO CLOUDS BELOW 12,000 FEET
WITH NO SIGNIFICANT WEATHER AND/OR OBSTRUCTIONS TO VISIBILITY.

KYZ001>023-026-027-061>063-070>075-080300-
WESTERN AND SOUTH CENTRAL KENTUCKY

CITY           SKY/WX    TMP DP  RH WIND       PRES   REMARKS
PADUCAH        CLOUDY    38  21  50 N13       30.25R WCI  30
HENDERSON      CLOUDY    36  23  60 NW6       30.24S WCI  31
OWENSBORO      CLOUDY    37  24  59 N8        30.23S WCI  31
HOPKINSVILLE   CLOUDY    39  24  54 N7        30.21R WCI  34
BOWLING GREEN  PTCLDY    39  24  55 VRB6      30.21R WCI  35
GLASGOW        PTCLDY    37  25  63 N5        30.19R WCI  33
$$

KYZ024-025-028>034-038-045-046-053-080300-
NORTH CENTRAL KENTUCKY

CITY           SKY/WX    TMP DP  RH WIND       PRES   REMARKS
LOUISVILLE/SDF CLOUDY    37  20  50 NW9       30.19S WCI  30
LOUISVILLE/LOU CLOUDY    38  20  48 NW6       30.19F WCI  33
FORT KNOX      CLOUDY    36  22  58 NW7       30.18R WCI  30
$$

KYZ035>037-039>044-047>052-055>060-089>105-080300-
NORTHEAST KENTUCKY

CITY           SKY/WX    TMP DP  RH WIND       PRES   REMARKS
LEXINGTON      CLOUDY    36  23  59 NW3       30.16F
COVINGTON      CLOUDY    34  25  69 W9        30.16R WCI  27
FRANKFORT      CLOUDY    36  23  59 CALM      30.16F
$$

KYZ054-064>069-076>088-106>120-080300-
SOUTHEAST KENTUCKY

CITY           SKY/WX    TMP DP  RH WIND       PRES   REMARKS
JACKSON        CLEAR     38  23  55 N6        30.12R WCI  33
LONDON         CLOUDY    34  28  79 CALM      30.14R
SOMERSET       PTCLDY    36  23  60 N6        30.15F WCI  31
MIDDLESBORO    CLOUDY    37  32  84 CALM      30.14R
MONTICELLO     CLOUDY    33  30  88 N14       30.17S WCI  23
$$




USA.gov is the U.S. government's official web portal to all federal, state and local government web resources and services.